UFO 2 (USA 95)

Last updated on Tue Sep 22 2026 00:03:10 GMT+0000 (Coordinated Universal Time)

1 22787U 93056A 26263.71090257 .00000127 00000+0 00000+0 0 9997 2 22787 11.9298 3.0100 0002335 236.3894 44.7801 1.00273786119504
UTC large
Height (km)
Speed (km/s)
/
Latitude / Longitude
Inclination (degrees)
Orbital Period (minutes)
Azimuth
Elevation
Range (km)
Doppler Factor

Next 0 passes for location: London (51.5072 / 0.1276)

No passes found over London.
UFO 2 (USA 95)